Flag for U.S.A. Weather past 2 weeks in Kailua-Kona, Hawaii, U.S.A.

Now
78 °F

Partly sunny.


Feels Like: 80 °F
Forecast: 62 / 77 °F
Wind: 8 mph from Northwest

Location: Keahole Airport

Current Time: May 25, 2015 at 8:04:42 PM

Latest Report: May 25, 2015 at 6:53 PM


Visibility: 10 mi

Pressure: 29.93 "Hg

Humidity: 56%

Dew point: 61 °F

Location of Kailua-KonaLocation

Historic Weather in Kailua-Kona — Graph

°F

Kailua-Kona temperature yesterday

Maximum temperature yesterday: 84 °F (at 12:53 PM)
Minimum temperature yesterday: 73 °F (at 5:53 AM)
Average temperature yesterday: 78 °F

Past Weeks' High & Low Weather Summary

 TemperatureHumidityPressure
High85 °F (May 23, 2:53 PM)84% (May 13, 3:53 AM)30.12 "Hg (May 13, 3:53 AM)
Low70 °F (May 15, 3:53 AM)45% (May 10, 7:53 PM)29.90 "Hg (May 25, 3:53 PM)
Average78 °F65%30.01 "Hg
* Reported May 10 6:27 PM — May 25 6:53 PM, Kailua-Kona, Weather by CustomWeather, © 2015

Note: Actual official high and low records may vary slightly from our data, if they occured in-between our weather recording intervals... More about our weather records

Advertising

Kailua-Kona weather history for previous 24 hours

 ConditionsComfort  
Time TempWeatherWind HumidityBarometerVisibility
6:53 PM
Mon, May 25
78 °FPartly sunny.8 mph56%29.93 "Hg10 mi
5:53 PM79 °FMostly cloudy.9 mph54%29.92 "Hg10 mi
4:53 PM80 °FSunny.10 mph54%29.90 "Hg10 mi
3:53 PM81 °FSunny.13 mph53%29.90 "Hg10 mi
2:53 PM82 °FScattered clouds.9 mph51%29.90 "Hg10 mi
1:53 PM83 °FPartly sunny.12 mph50%29.92 "Hg10 mi
12:53 PM81 °FBroken clouds.12 mph54%29.94 "Hg10 mi
11:53 AM80 °FOvercast.10 mph56%29.95 "Hg10 mi
10:53 AM80 °FOvercast.8 mph58%29.97 "Hg10 mi
9:53 AM80 °FScattered clouds.8 mph58%29.97 "Hg10 mi
8:53 AM79 °FScattered clouds.8 mph60%29.97 "Hg10 mi
7:53 AM76 °FSunny.5 mph64%29.96 "Hg10 mi
6:53 AM74 °FScattered clouds.No wind64%29.95 "Hg10 mi
5:53 AM72 °FScattered clouds.No wind68%29.93 "Hg10 mi
5:21 AM73 °FPassing clouds.No wind69%29.93 "Hg10 mi
4:53 AM73 °FPassing clouds.7 mph69%29.93 "Hg10 mi
3:53 AM73 °FClear.10 mph71%29.93 "Hg10 mi
2:53 AM73 °FPassing clouds.6 mph69%29.94 "Hg10 mi
1:53 AM73 °FClear.7 mph71%29.95 "Hg10 mi
12:53 AM74 °FClear.9 mph69%29.97 "Hg10 mi
11:53 PM
Sun, May 24
75 °FPassing clouds.7 mph69%29.98 "Hg10 mi
10:53 PM76 °FPassing clouds.9 mph72%30.00 "Hg10 mi
9:53 PM77 °FPartly cloudy.14 mph74%30.00 "Hg10 mi
8:53 PM78 °FMostly cloudy.5 mph60%29.99 "Hg10 mi
Weather by CustomWeather, © 2015

See weather overviewHow to use our weather pages